Temp
84 84 82 79 68 67 62 66 72 69 70 75 79 76 68 71 69 58 74 77 79 78 79 82 82 83 83 82 83 83 83 83 83 83 83 83 83 83 83 84 84 84 84 84 84 84 84 84 84
84 85 81 72 64 58 60 74 68 75 77 78 79 77 71 67 76 73 74 78 81 79 79 80 82 83 83 83 83 83 84 83 83 83 83 83 83 84 84 84 84 84 84 84 84 84 84 84 83
87 88 72 66 62 58 62 73 75 78 80 79 76 79 73 69 77 77 79 81 81 78 79 80 82 83 83 83 83 83 83 83 83 83 83 84 84 84 84 84 84 84 84 84 84 84 84 84 84
82 78 76 68 63 70 71 74 78 76 79 81 78 70 77 82 80 81 83 82 79 79 81 82 83 83 83 83 83 83 83 83 83 83 84 84 84 84 84 84 84 84 84 84 84 84 84 84 83
80 73 65 63 67 75 78 78 79 76 77 76 77 68 71 80 82 82 81 81 78 78 80 81 83 83 83 83 83 83 84 84 83 83 84 84 84 85 84 84 85 85 85 85 84 84 84 83 83
72 71 62 60 67 76 79 82 80 76 75 74 71 70 70 81 80 81 82 80 80 79 80 81 82 83 83 84 84 83 84 84 83 83 84 83 84 84 84 84 85 85 85 85 84 84 83 83 83
76 65 63 65 69 72 76 82 76 73 75 74 78 68 71 77 81 83 82 81 80 80 79 79 80 83 84 84 84 84 84 84 83 84 84 84 84 84 84 84 84 85 85 85 85 84 83 83 83
78 75 68 64 65 68 79 79 81 77 77 83 82 67 66 77 83 84 82 79 79 78 77 77 77 79 79 81 84 84 84 84 84 84 84 84 84 84 85 81 83 85 85 85 84 84 83 83 83
82 63 63 69 69 71 82 78 83 86 78 82 84 79 80 83 84 81 79 77 77 79 76 76 77 77 77 78 82 83 84 84 84 83 84 82 76 78 80 80 82 84 85 85 84 84 83 83 83
79 67 70 78 76 75 82 82 81 78 77 77 78 83 84 84 82 78 76 74 75 76 76 77 76 76 77 83 76 76 79 78 77 77 77 76 76 74 78 79 82 84 84 84 84 83 83 82 77
80 76 83 81 83 82 79 79 81 77 72 76 75 78 81 80 79 78 78 77 76 78 79 78 78 76 77 77 75 75 75 76 76 76 76 75 74 74 73 74 75 74 80 78 80 79 78 77 76
77 87 85 81 84 79 79 79 78 77 77 83 83 82 81 79 79 79 78 78 77 78 79 79 77 77 76 76 77 76 75 75 75 75 76 74 72 72 73 74 74 74 74 75 75 74 75 76 75
84 85 87 86 82 80 81 77 77 78 82 85 85 84 80 80 80 81 81 80 80 78 79 78 79 77 76 77 75 76 76 76 77 75 76 75 73 73 74 73 74 74 74 73 73 71 72 74 75
88 85 84 84 80 80 78 77 79 79 83 83 83 80 81 81 81 80 80 79 79 80 81 80 79 78 76 75 75 74 76 77 76 76 75 75 74 73 73 72 72 72 72 73 72 72 72 71 72
89 79 82 81 80 79 83 74 74 81 83 80 80 81 81 81 81 80 80 80 80 79 79 78 77 78 77 76 76 76 75 76 75 76 77 75 75 74 73 71 70 72 72 73 72 72 71 70 72
79 77 67 76 81 81 76 64 77 82 80 77 80 81 82 80 81 82 82 81 80 78 78 78 84 78 76 75 75 76 75 75 75 75 76 77 76 74 73 70 70 72 71 71 70 69 69 69 69
69 64 68 72 79 78 72 66 78 82 80 77 79 81 81 79 81 82 82 81 81 79 78 78 79 77 76 76 75 75 76 75 75 75 73 75 74 74 72 71 71 71 70 69 69 69 68 68 68
63 64 73 70 77 76 71 69 77 80 79 78 79 80 80 80 80 81 82 83 81 79 79 79 77 76 76 75 75 74 74 73 74 73 72 75 74 74 74 72 72 71 70 70 70 69 68 68 68
73 70 72 77 80 73 71 71 75 78 79 78 77 77 79 79 82 82 83 83 81 79 77 77 76 74 74 73 72 72 71 72 72 74 75 75 75 75 73 72 72 71 70 70 70 68 68 67 68
72 71 71 75 80 73 70 70 76 78 78 79 78 77 79 76 78 81 81 81 79 79 77 75 75 74 74 73 72 72 72 72 73 74 74 74 75 75 74 72 71 70 69 68 68 67 66 66 68
70 70 72 74 79 75 71 64 68 76 80 81 81 81 81 77 77 79 79 79 80 78 75 76 74 75 74 74 73 73 72 71 70 71 71 73 75 74 72 71 69 69 68 67 67 67 67 64 66
64 79 81 77 74 60 72 53 62 72 73 76 78 79 80 78 79 79 79 78 79 79 79 77 75 74 75 74 73 72 69 67 67 68 70 71 73 73 72 72 70 68 67 67 67 69 67 66 63
74 80 78 76 72 63 64 56 67 66 64 69 75 79 81 79 80 79 80 80 81 81 80 78 76 74 75 73 73 69 66 66 66 67 68 67 67 70 72 71 69 68 67 67 67 67 66 65 64
85 77 69 65 60 52 63 60 56 62 71 75 76 81 82 81 80 81 82 81 81 82 81 78 75 73 72 71 69 68 67 65 66 65 65 65 65 67 70 71 68 68 67 67 67 67 67 66 65
75 62 52 52 50 51 58 61 66 70 79 77 77 80 83 82 81 80 80 79 78 79 79 78 75 71 71 70 69 68 68 67 66 66 65 65 65 65 67 67 67 67 67 67 67 66 66 65 64
68 65 52 47 48 54 61 57 69 75 81 81 83 83 84 81 82 81 81 80 79 80 79 78 74 73 71 70 70 69 68 68 67 67 66 65 65 66 67 67 68 69 68 68 67 65 66 65 65
70 61 67 57 50 52 57 65 72 75 77 80 78 79 81 81 81 81 82 81 80 80 79 78 75 75 73 71 68 68 68 67 67 67 67 66 66 68 68 69 68 68 68 68 67 65 67 65 64
77 74 60 54 49 46 54 58 59 65 71 74 76 76 78 82 82 82 82 81 81 82 80 79 77 76 74 72 71 70 70 68 68 67 67 66 67 67 68 68 68 68 68 67 66 65 65 64 64
67 63 61 60 54 50 48 54 66 72 73 73 75 80 76 79 82 82 82 83 81 82 80 78 77 76 75 73 68 69 69 69 68 67 67 67 67 67 67 67 67 67 67 67 66 65 65 65 64
72 68 62 55 53 52 53 56 73 74 74 78 79 79 76 80 81 83 83 82 80 80 79 77 77 76 75 73 70 71 70 68 67 67 68 67 67 67 67 67 66 66 67 66 65 65 66 65 63
MSLP
1008.04 1007.87 1007.97 1008.07 1008.90 1008.84 1009.19 1010.25 1009.97 1010.16 1010.24 1010.12 1010.41 1010.85 1012.20 1012.46 1012.97 1015.10 1015.29 1015.52 1015.67 1015.73 1015.72 1015.76 1016.02 1016.01 1016.23 1016.41 1016.65 1016.92 1017.14 1017.02 1017.30 1017.43 1017.47 1017.80 1018.03 1017.99 1018.33 1018.52 1018.52 1018.52 1018.62 1018.54 1018.42 1018.40 1018.37 1018.36 1018.31
1008.32 1008.45 1008.29 1008.40 1008.83 1009.09 1009.15 1009.53 1009.77 1009.65 1009.89 1010.34 1010.65 1011.21 1011.87 1013.19 1013.43 1014.67 1015.29 1015.51 1015.51 1015.72 1015.79 1016.06 1016.09 1016.18 1016.50 1016.94 1017.06 1017.08 1017.14 1017.25 1017.68 1017.56 1017.75 1017.97 1018.00 1018.09 1018.36 1018.56 1018.52 1018.60 1018.68 1018.63 1018.61 1018.52 1018.46 1018.50 1018.43
1008.40 1008.09 1008.48 1008.44 1008.82 1008.66 1009.05 1009.23 1009.17 1009.63 1010.05 1010.13 1010.68 1011.37 1012.57 1013.71 1013.97 1014.53 1014.95 1015.33 1015.62 1015.86 1015.94 1016.23 1016.33 1016.55 1016.77 1016.99 1017.16 1017.23 1017.48 1017.53 1017.59 1017.81 1017.91 1017.89 1018.14 1018.22 1018.42 1018.49 1018.51 1018.55 1018.56 1018.59 1018.63 1018.61 1018.55 1018.51 1018.50
1007.99 1008.49 1008.31 1008.28 1008.35 1007.91 1008.03 1008.71 1008.65 1009.75 1010.55 1010.56 1010.83 1012.00 1013.14 1013.51 1013.81 1014.26 1014.98 1015.21 1015.77 1016.03 1016.19 1016.31 1016.56 1016.92 1016.98 1017.19 1017.25 1017.50 1017.61 1017.59 1017.76 1017.83 1017.93 1018.03 1018.11 1018.32 1018.45 1018.52 1018.47 1018.47 1018.57 1018.66 1018.63 1018.61 1018.51 1018.40 1018.37
1007.58 1007.98 1008.54 1008.69 1007.95 1008.09 1007.92 1008.12 1008.71 1009.48 1010.15 1010.70 1011.03 1012.69 1013.37 1013.94 1014.22 1014.61 1015.14 1015.57 1015.84 1016.14 1016.30 1016.51 1016.79 1017.06 1017.23 1017.39 1017.38 1017.60 1017.70 1017.73 1017.82 1017.93 1017.92 1018.05 1018.24 1018.33 1018.37 1018.40 1018.44 1018.54 1018.60 1018.54 1018.56 1018.47 1018.40 1018.31 1018.27
1007.45 1008.18 1009.15 1009.42 1008.63 1007.79 1008.21 1007.95 1008.45 1009.35 1010.42 1011.19 1011.98 1012.52 1014.04 1014.33 1014.60 1014.93 1015.34 1015.69 1015.81 1016.15 1016.36 1016.68 1017.02 1017.16 1017.33 1017.49 1017.65 1017.75 1017.85 1017.91 1017.98 1018.02 1018.04 1018.29 1018.33 1018.38 1018.44 1018.47 1018.51 1018.59 1018.52 1018.41 1018.40 1018.40 1018.35 1018.26 1018.27
1006.27 1008.37 1009.20 1009.25 1009.04 1008.22 1008.18 1007.91 1008.32 1009.52 1010.33 1011.04 1011.52 1012.58 1014.23 1014.55 1014.68 1014.92 1015.39 1015.73 1015.80 1016.18 1016.52 1016.78 1017.03 1017.15 1017.37 1017.54 1017.62 1017.73 1017.86 1017.97 1018.00 1018.02 1018.19 1018.24 1018.33 1018.39 1018.43 1018.47 1018.55 1018.51 1018.40 1018.33 1018.24 1018.29 1018.26 1018.21 1018.21
1006.17 1009.15 1009.05 1008.84 1008.81 1008.35 1008.09 1007.91 1008.15 1008.58 1009.80 1010.74 1011.15 1012.49 1013.58 1013.96 1014.48 1014.93 1015.47 1015.91 1016.27 1016.54 1016.67 1016.85 1017.04 1017.27 1017.42 1017.47 1017.49 1017.65 1017.79 1017.81 1017.93 1018.01 1018.04 1018.09 1018.30 1018.38 1018.44 1018.57 1018.55 1018.44 1018.44 1018.30 1018.20 1018.23 1018.23 1018.15 1018.15
1006.32 1008.18 1008.80 1008.08 1008.01 1007.91 1007.65 1007.63 1008.85 1008.86 1009.56 1010.27 1010.55 1011.37 1012.45 1013.44 1014.26 1015.02 1015.61 1016.23 1016.57 1016.76 1016.87 1016.92 1017.11 1017.30 1017.36 1017.45 1017.46 1017.47 1017.53 1017.61 1017.76 1017.91 1017.96 1018.14 1018.42 1018.37 1018.47 1018.60 1018.60 1018.49 1018.32 1018.21 1018.16 1018.17 1018.26 1018.14 1018.09
1005.84 1007.23 1007.49 1006.72 1006.78 1007.01 1007.35 1007.50 1008.16 1009.23 1010.05 1010.56 1011.10 1011.81 1012.63 1013.45 1014.19 1014.87 1015.52 1016.13 1016.52 1016.68 1016.83 1016.96 1017.07 1017.18 1017.29 1017.20 1017.52 1017.52 1017.63 1017.51 1017.64 1017.87 1018.02 1018.26 1018.45 1018.58 1018.56 1018.51 1018.33 1018.26 1018.23 1018.08 1018.06 1018.11 1018.15 1018.15 1018.18
1004.64 1005.35 1005.61 1006.07 1006.14 1006.54 1007.15 1007.82 1008.18 1008.99 1010.00 1009.68 1010.54 1011.48 1012.49 1013.37 1014.15 1014.66 1015.24 1015.57 1015.84 1016.12 1016.51 1016.71 1016.74 1017.01 1017.20 1017.29 1017.46 1017.60 1017.58 1017.60 1017.72 1017.82 1017.94 1018.21 1018.45 1018.52 1018.53 1018.51 1018.44 1018.43 1018.31 1018.28 1018.09 1018.18 1018.35 1018.33 1018.24
1003.72 1003.80 1004.59 1005.91 1005.88 1006.45 1006.97 1007.70 1008.46 1008.53 1009.34 1009.64 1010.37 1011.29 1012.20 1013.14 1013.87 1014.22 1014.78 1015.27 1015.73 1015.85 1016.03 1016.43 1016.52 1016.78 1016.94 1016.99 1017.21 1017.34 1017.50 1017.57 1017.67 1017.77 1017.95 1018.23 1018.40 1018.42 1018.49 1018.47 1018.44 1018.43 1018.36 1018.40 1018.35 1018.39 1018.38 1018.34 1018.25
1002.58 1003.15 1004.59 1005.34 1005.69 1006.32 1006.87 1007.82 1008.21 1009.05 1009.48 1010.18 1010.60 1011.51 1012.37 1012.92 1013.49 1013.84 1014.13 1014.67 1015.18 1015.50 1015.68 1016.17 1016.28 1016.53 1016.64 1016.77 1017.06 1017.19 1017.31 1017.40 1017.36 1017.61 1017.73 1017.97 1018.12 1018.25 1018.28 1018.18 1018.30 1018.33 1018.33 1018.52 1018.47 1018.58 1018.48 1018.33 1018.26
1002.45 1003.15 1004.61 1004.98 1005.64 1006.40 1006.87 1007.98 1008.10 1009.66 1009.86 1010.45 1010.83 1011.45 1012.14 1012.57 1013.12 1013.64 1014.08 1014.49 1014.91 1015.08 1015.35 1015.74 1016.00 1016.10 1016.44 1016.71 1016.87 1016.94 1016.90 1017.01 1017.18 1017.31 1017.49 1017.55 1017.78 1018.00 1018.06 1018.24 1018.38 1018.30 1018.42 1018.42 1018.37 1018.36 1018.30 1018.24 1018.15
1002.28 1004.02 1004.96 1005.53 1005.80 1006.60 1006.36 1008.20 1008.45 1009.18 1009.94 1010.48 1010.96 1011.40 1011.85 1012.16 1012.76 1013.21 1013.60 1013.99 1014.31 1014.72 1015.07 1015.41 1015.71 1015.80 1016.28 1016.47 1016.48 1016.60 1016.74 1016.86 1016.94 1017.02 1017.05 1017.30 1017.44 1017.57 1017.85 1018.08 1018.44 1018.25 1018.25 1018.22 1018.26 1018.23 1018.22 1018.22 1018.04
1003.18 1003.70 1005.38 1006.13 1005.66 1006.43 1006.41 1008.88 1009.11 1009.38 1009.81 1010.54 1010.90 1011.24 1011.63 1012.02 1012.31 1012.72 1013.15 1013.52 1013.89 1014.44 1014.87 1015.14 1015.43 1015.76 1016.10 1016.32 1016.27 1016.39 1016.49 1016.67 1016.82 1016.80 1016.92 1017.10 1017.12 1017.22 1017.56 1017.95 1018.22 1018.03 1018.17 1018.24 1018.41 1018.51 1018.40 1018.37 1018.29
1003.78 1004.19 1004.80 1005.86 1005.32 1005.65 1006.68 1008.83 1008.95 1009.03 1009.45 1010.01 1010.43 1010.73 1011.02 1011.61 1012.06 1012.50 1012.83 1013.17 1013.51 1013.96 1014.59 1015.03 1015.24 1015.59 1015.92 1015.97 1016.07 1016.27 1016.36 1016.48 1016.48 1016.56 1016.72 1016.78 1016.89 1017.07 1017.33 1017.72 1017.84 1017.91 1018.05 1018.24 1018.46 1018.48 1018.56 1018.39 1018.15
1003.93 1004.17 1004.56 1004.55 1005.13 1005.61 1006.70 1007.75 1008.16 1008.60 1009.03 1009.08 1009.65 1010.18 1010.58 1011.03 1011.40 1011.77 1012.32 1012.83 1013.21 1013.61 1014.13 1014.52 1014.99 1015.34 1015.65 1015.92 1016.08 1016.19 1016.38 1016.40 1016.36 1016.47 1016.53 1016.67 1016.76 1016.86 1017.11 1017.47 1017.57 1017.73 1017.98 1018.19 1018.28 1018.38 1018.39 1018.28 1018.19
1003.62 1003.56 1003.80 1003.69 1004.39 1005.63 1006.45 1007.35 1007.72 1008.20 1008.77 1009.10 1009.17 1009.61 1010.19 1010.66 1010.99 1011.42 1011.91 1012.45 1013.04 1013.45 1013.96 1014.36 1014.87 1015.16 1015.58 1015.97 1016.27 1016.43 1016.58 1016.48 1016.41 1016.21 1016.36 1016.49 1016.59 1016.74 1017.03 1017.24 1017.37 1017.50 1017.87 1017.93 1018.01 1018.05 1018.13 1018.19 1018.06
1003.33 1003.71 1003.24 1003.48 1003.85 1004.95 1006.51 1007.21 1007.41 1007.72 1007.72 1008.01 1008.50 1009.20 1009.64 1010.46 1011.04 1011.45 1011.76 1012.26 1012.87 1013.31 1013.74 1014.23 1014.53 1014.96 1015.25 1015.46 1015.83 1016.06 1016.11 1016.09 1016.00 1015.92 1016.16 1016.33 1016.40 1016.56 1016.78 1017.04 1017.43 1017.50 1017.71 1017.86 1017.86 1017.86 1017.98 1018.10 1017.98
1002.39 1002.71 1002.81 1002.84 1003.76 1005.07 1006.76 1008.16 1007.91 1007.68 1007.76 1007.96 1008.20 1008.14 1008.60 1009.43 1010.52 1011.23 1011.69 1012.10 1012.55 1013.14 1013.50 1013.94 1014.30 1014.62 1014.91 1015.22 1015.67 1015.97 1016.03 1016.09 1016.13 1016.14 1016.36 1016.38 1016.32 1016.46 1016.69 1016.96 1017.15 1017.31 1017.43 1017.61 1017.67 1017.71 1017.81 1018.01 1018.01
1002.16 1001.90 1001.62 1002.60 1003.78 1005.39 1005.95 1007.88 1007.82 1007.36 1007.62 1007.58 1007.65 1008.09 1008.36 1008.84 1009.40 1010.42 1011.11 1011.77 1012.25 1012.61 1013.02 1013.52 1013.99 1014.37 1014.65 1015.00 1015.39 1015.71 1015.92 1016.28 1016.25 1016.16 1016.25 1016.30 1016.19 1016.32 1016.49 1016.67 1016.84 1017.07 1017.23 1017.45 1017.48 1017.48 1017.58 1017.70 1017.98
1001.07 1001.07 1001.61 1002.30 1003.60 1005.03 1006.42 1007.17 1006.70 1007.38 1007.62 1007.02 1006.77 1006.72 1007.02 1007.77 1008.46 1009.37 1010.06 1010.71 1011.38 1011.98 1012.46 1012.89 1013.51 1013.98 1014.30 1014.73 1015.02 1015.57 1015.99 1016.09 1016.03 1016.24 1016.37 1016.44 1016.41 1016.33 1016.38 1016.57 1016.93 1017.06 1017.14 1017.24 1017.31 1017.32 1017.37 1017.46 1017.68
1000.13 1000.89 1001.60 1003.11 1004.76 1006.04 1005.93 1006.41 1006.76 1006.29 1005.11 1005.40 1005.74 1006.00 1006.49 1007.13 1007.73 1008.44 1009.22 1009.92 1010.61 1011.51 1012.11 1012.62 1013.10 1013.56 1013.98 1014.43 1014.86 1015.32 1015.91 1016.15 1016.26 1016.47 1016.71 1016.58 1016.22 1016.28 1016.28 1016.50 1016.77 1016.71 1016.86 1016.97 1017.06 1017.06 1017.18 1017.29 1017.39
1000.28 1001.71 1002.97 1004.54 1006.06 1006.17 1005.28 1005.98 1004.53 1003.93 1003.63 1003.62 1004.13 1004.76 1005.39 1006.16 1007.08 1007.81 1008.77 1009.59 1010.12 1010.85 1011.50 1012.15 1012.67 1013.27 1013.69 1014.14 1014.56 1014.97 1015.33 1015.68 1016.09 1016.33 1016.53 1016.58 1016.54 1016.60 1016.52 1016.64 1016.74 1016.70 1016.61 1016.65 1016.74 1016.94 1017.03 1017.16 1017.27
1000.22 1001.38 1003.19 1004.33 1005.14 1005.06 1004.88 1004.13 1002.28 1001.68 1001.53 1002.42 1002.82 1003.43 1004.54 1005.49 1006.14 1006.83 1007.65 1008.45 1009.18 1009.87 1010.70 1011.36 1012.01 1012.68 1013.32 1013.80 1014.09 1014.39 1014.77 1015.22 1015.46 1015.86 1016.13 1016.37 1016.57 1016.48 1016.46 1016.48 1016.35 1016.34 1016.45 1016.55 1016.55 1016.74 1016.84 1016.96 1017.07
999.80 1000.66 1001.54 1003.53 1005.10 1005.35 1004.23 1002.93 1001.27 1000.56 1001.34 1001.94 1002.69 1003.65 1003.95 1004.66 1005.48 1006.20 1006.99 1007.54 1008.25 1008.93 1009.51 1010.21 1010.97 1011.69 1012.40 1013.02 1013.65 1014.19 1014.51 1014.97 1015.32 1015.55 1015.81 1016.06 1016.17 1016.25 1016.25 1016.03 1016.27 1016.25 1016.25 1016.25 1016.44 1016.48 1016.55 1016.67 1016.77
998.37 999.43 1001.73 1003.39 1004.81 1005.48 1004.58 1003.61 1002.22 1001.73 1001.52 1001.77 1002.48 1003.02 1003.44 1004.06 1004.78 1005.53 1006.21 1006.57 1007.13 1007.51 1008.30 1009.21 1010.00 1010.67 1011.36 1012.23 1013.01 1013.70 1014.01 1014.33 1014.95 1015.21 1015.51 1015.66 1015.86 1015.98 1015.99 1016.09 1016.11 1016.15 1016.16 1016.20 1016.22 1016.28 1016.30 1016.40 1016.45
998.38 999.25 1000.99 1002.36 1003.84 1004.77 1004.75 1003.90 1001.17 1000.68 1000.77 1001.34 1001.74 1001.83 1002.91 1003.51 1003.90 1004.47 1005.15 1005.88 1006.36 1006.93 1007.89 1008.52 1009.54 1010.26 1010.92 1011.73 1012.60 1013.20 1013.51 1013.92 1014.36 1014.93 1015.16 1015.27 1015.53 1015.74 1015.78 1015.90 1015.91 1015.89 1015.89 1015.95 1016.13 1016.09 1016.00 1016.14 1016.21
996.84 998.41 1000.10 1002.07 1003.70 1004.09 1003.80 1002.47 1000.46 1000.02 1000.24 1000.53 1001.16 1001.55 1001.94 1002.73 1003.17 1003.72 1004.31 1005.04 1005.94 1006.55 1007.32 1007.81 1008.84 1009.64 1010.22 1011.13 1011.91 1012.49 1013.00 1013.59 1014.04 1014.40 1014.62 1014.88 1015.18 1015.40 1015.39 1015.50 1015.58 1015.54 1015.53 1015.44 1015.52 1015.69 1015.90 1015.95 1016.00
Wind_Speed
8 5 0 2 4 4 7 6 3 9 3 3 3 8 13 10 4 6 5 9 10 9 8 12 15 18 18 18 17 17 16 17 16 16 17 16 15 15 13 12 12 11 11 11 10 9 9 8 6
3 3 1 1 5 2 4 15 9 10 9 7 13 9 12 8 8 11 8 9 12 10 8 9 15 17 18 17 17 17 17 17 15 15 15 15 15 14 13 12 12 11 10 10 8 7 7 5 4
6 8 2 3 1 4 11 13 12 15 13 7 8 13 6 8 12 11 10 14 11 9 8 11 15 16 18 17 17 16 16 16 16 15 15 15 14 14 13 12 11 11 9 8 6 5 5 4 3
7 2 3 3 6 2 17 15 19 14 8 10 12 12 7 7 8 10 16 15 13 11 10 13 15 16 17 16 17 15 15 15 14 14 14 14 14 14 13 12 11 9 8 7 5 4 4 3 3
1 3 4 3 3 9 17 22 20 18 10 15 9 8 7 10 16 18 16 13 13 9 10 11 15 16 17 17 16 15 15 14 13 12 14 13 12 12 12 11 9 8 7 6 4 2 2 3 3
4 2 6 3 7 5 15 20 20 16 18 18 15 11 4 14 15 14 14 12 11 11 9 10 15 17 17 16 16 15 14 13 12 12 11 11 10 9 8 7 7 6 5 4 2 3 4 4 4
9 6 6 2 4 15 16 19 16 19 16 10 12 9 9 14 14 15 13 12 11 10 8 7 9 13 17 16 16 15 14 13 12 11 10 10 9 7 6 6 5 5 5 3 2 2 4 5 5
7 8 6 3 1 4 16 5 17 21 10 18 13 9 11 16 16 13 13 11 10 8 7 7 6 6 7 10 16 16 14 13 12 12 11 10 8 6 4 2 4 5 4 4 3 3 4 6 6
5 6 5 5 8 4 8 12 12 8 17 10 5 12 16 20 17 13 11 8 9 9 7 6 6 6 6 6 11 15 16 13 12 10 9 5 2 2 1 3 6 6 5 6 5 5 5 6 6
5 5 10 6 5 6 7 17 13 10 15 13 17 15 18 21 18 16 14 12 10 10 9 8 7 7 6 7 5 5 6 4 5 5 5 3 3 4 2 5 4 7 7 6 6 5 7 4 3
6 11 10 7 5 9 8 7 2 19 14 26 23 23 23 21 17 18 16 15 13 13 9 9 8 6 7 4 3 2 2 3 3 5 5 4 3 2 1 0 1 2 5 1 3 2 2 4 3
7 15 15 7 8 7 8 7 6 4 12 21 21 21 20 23 17 17 16 13 11 13 11 9 8 8 7 4 4 4 3 3 3 4 5 4 3 3 3 2 2 1 1 1 0 2 3 3 4
16 13 16 14 11 9 8 6 9 14 20 19 19 19 19 19 16 14 16 14 13 11 9 10 11 9 6 5 4 4 5 4 5 4 5 4 4 4 3 3 2 1 1 1 3 2 3 3 4
10 25 22 17 11 8 17 10 7 16 20 19 17 12 15 16 15 9 11 14 12 10 11 12 12 8 6 6 6 5 4 5 4 4 5 6 4 4 4 3 3 3 2 2 1 2 3 3 4
24 22 14 13 11 8 15 7 7 18 19 20 17 13 11 10 15 13 14 14 12 11 10 10 9 8 8 8 6 4 4 3 2 4 6 5 5 5 5 3 3 4 2 2 2 3 3 4 4
8 12 9 7 14 10 11 5 10 20 19 17 18 16 14 11 15 16 15 13 10 10 11 9 9 8 7 6 5 3 3 3 3 4 3 5 6 6 5 2 3 4 2 2 2 2 3 3 3
7 8 13 6 5 9 7 8 12 14 17 17 17 16 16 12 11 13 16 14 11 13 12 11 8 8 8 6 4 4 4 3 4 3 2 3 4 5 5 4 4 4 2 2 3 2 2 3 4
5 8 17 14 10 4 11 8 19 16 15 17 15 13 13 15 16 15 15 13 11 9 11 10 7 8 7 4 3 2 2 2 3 4 3 1 1 4 4 3 2 3 3 3 3 4 3 4 3
4 8 14 11 11 8 15 13 19 17 14 14 13 12 13 15 12 14 14 13 11 9 8 8 8 7 6 3 3 1 3 2 3 4 3 4 3 4 4 2 1 1 2 3 3 2 3 2 2
4 7 9 1 10 8 13 18 18 19 20 18 16 14 15 9 12 13 12 13 12 12 9 7 8 9 6 4 3 3 3 3 3 2 2 5 5 4 3 3 2 1 1 2 1 1 1 1 1
6 8 10 11 6 7 11 1 9 14 13 13 13 18 19 18 16 14 12 12 11 11 9 9 8 10 7 7 3 1 1 2 1 0 3 3 5 5 5 5 3 2 3 2 1 1 2 0 1
8 10 15 9 15 8 8 6 7 16 15 11 12 15 17 18 20 17 15 12 12 12 10 11 9 9 8 8 5 5 4 3 3 3 3 3 4 5 4 3 4 4 3 2 1 1 2 2 1
14 8 12 12 15 8 3 6 11 8 9 11 13 20 20 20 22 21 20 17 15 14 13 12 11 9 7 7 6 5 4 2 2 3 5 2 3 3 4 5 4 3 2 1 1 1 1 2 2
13 4 7 5 5 2 12 8 5 11 26 19 11 19 18 20 22 22 19 17 16 15 13 11 11 8 8 8 8 9 8 6 4 3 3 3 1 2 5 6 4 3 2 1 1 1 1 1 2
4 7 2 2 1 8 8 9 13 20 24 17 20 22 21 21 20 20 21 16 17 18 16 13 13 9 9 9 9 9 9 8 7 5 4 4 3 2 4 4 4 2 1 2 2 2 2 1 3
8 12 9 7 3 6 9 8 14 18 25 19 19 25 21 20 21 22 22 19 19 20 18 16 15 13 12 9 9 7 8 5 4 4 3 3 3 4 4 4 4 3 3 3 3 2 3 3 4
9 4 11 8 1 4 4 8 8 8 16 16 15 16 20 21 21 22 21 19 19 20 20 20 18 17 15 11 8 8 7 7 6 6 5 4 4 4 6 6 5 4 3 2 1 2 3 1 3
16 8 4 4 7 4 5 5 7 5 12 11 12 14 17 19 20 19 20 21 20 19 20 19 19 19 17 14 11 9 8 8 7 6 7 6 4 4 5 5 4 4 4 4 2 2 4 5 4
2 3 4 7 6 7 3 8 8 16 17 17 17 17 14 18 20 20 20 19 20 18 18 18 18 17 15 13 10 8 8 8 8 7 7 6 4 5 4 5 5 5 5 5 4 5 6 4 4
9 11 8 8 6 2 6 9 5 13 13 17 16 13 10 18 18 20 20 20 19 19 18 19 18 17 15 12 12 11 9 8 8 7 7 7 7 5 6 6 6 6 6 6 5 5 5 5 6
Wind_Direction
148 171 189 36 70 57 118 135 124 140 181 300 69 94 91 28 69 128 139 136 132 123 123 119 119 118 118 114 117 117 115 111 115 113 110 112 112 109 109 110 111 111 113 108 109 113 103 97 83
128 142 8 12 77 119 72 132 158 151 151 126 95 87 49 70 68 110 113 145 134 133 122 124 125 125 127 127 124 123 120 116 118 117 120 121 118 119 121 121 119 115 110 109 113 111 108 111 113
160 229 72 87 112 128 103 138 129 133 143 157 118 86 78 107 113 141 136 141 132 125 123 138 128 131 133 132 129 127 126 123 123 127 131 124 126 126 132 130 125 120 117 116 117 117 121 127 126
176 187 334 75 189 157 130 135 129 132 164 105 100 78 72 118 120 133 147 135 131 136 136 133 134 137 137 137 134 136 130 131 134 135 130 132 135 142 141 134 127 122 126 134 144 154 153 162 154
167 73 65 29 156 115 133 142 147 133 96 104 92 89 83 92 114 124 131 135 136 136 139 134 139 144 143 145 144 143 143 144 142 141 143 143 147 149 145 135 134 140 149 154 165 184 214 201 204
75 99 49 30 317 89 130 131 117 99 107 103 104 102 90 130 128 135 132 136 140 139 139 148 148 144 140 141 142 145 148 151 153 154 151 153 156 151 142 151 155 158 160 157 192 239 247 253 249
103 65 329 72 22 109 127 131 125 131 134 125 132 105 136 148 146 144 139 137 139 138 137 144 152 153 151 146 146 149 155 161 162 163 157 165 163 160 168 174 180 188 185 215 248 275 274 268 276
73 91 221 202 198 119 152 122 140 147 117 132 134 151 162 170 156 148 144 137 137 133 136 141 149 151 156 156 153 160 164 165 167 169 175 174 167 175 189 284 249 236 229 254 273 284 277 279 282
118 97 261 220 152 209 164 124 151 124 133 161 192 140 156 160 157 145 138 140 136 151 153 155 157 152 162 165 174 173 172 176 178 178 187 181 151 180 23 277 277 265 242 253 264 275 278 273 286
155 138 204 234 177 155 139 132 142 130 148 113 117 133 145 151 157 153 152 155 159 164 173 168 164 171 171 173 169 179 189 186 183 185 200 167 172 203 237 229 247 234 245 233 243 253 268 297 297
207 218 157 207 146 145 115 116 77 134 143 147 153 149 153 152 153 158 164 167 171 175 172 174 171 172 173 184 181 174 204 188 204 203 192 176 161 181 197 232 358 320 280 273 247 253 259 273 279
152 211 148 194 163 140 161 98 94 151 156 151 148 142 151 158 165 165 164 167 161 167 179 168 168 174 193 173 180 193 192 200 208 212 207 177 192 199 184 195 216 265 98 158 279 269 263 291 294
202 126 149 161 152 125 116 94 109 116 135 143 143 146 151 158 163 165 166 166 171 173 174 163 171 187 182 172 184 203 207 205 210 203 198 184 199 203 188 209 216 144 176 258 255 283 323 318 303
151 135 149 147 136 120 118 136 93 136 140 146 153 145 158 165 172 155 161 161 171 167 172 164 172 178 166 172 192 196 207 204 202 194 209 186 195 192 204 212 224 240 179 242 255 286 300 300 301
143 130 134 152 152 123 101 68 119 144 150 152 156 160 168 172 160 163 167 168 162 167 168 172 171 170 177 177 178 173 156 143 169 192 198 183 191 198 203 213 243 249 253 277 309 315 327 328 325
149 113 134 228 150 166 93 152 133 147 151 159 164 174 180 186 169 170 170 169 173 155 171 176 183 177 171 173 167 169 193 171 187 203 215 221 209 206 198 184 264 254 257 244 280 305 309 294 287
321 149 136 155 259 137 111 145 166 158 156 165 177 183 181 181 176 165 170 174 177 164 174 182 179 171 177 178 168 179 200 211 223 222 224 262 273 204 170 199 219 240 242 242 248 274 240 294 304
219 101 161 169 176 107 136 169 166 172 169 176 181 188 182 178 181 173 172 173 175 174 171 173 165 176 175 166 171 192 217 235 238 240 252 208 142 146 149 199 231 186 186 223 229 235 241 237 264
209 138 179 196 151 121 156 160 175 176 183 191 185 174 174 176 180 170 171 169 171 171 165 170 170 174 155 159 166 190 209 223 247 244 221 203 172 150 153 160 168 176 217 247 265 253 229 287 241
215 192 192 194 160 111 164 171 181 181 195 193 185 173 173 153 163 172 165 161 168 175 177 176 174 163 174 165 167 170 185 221 206 202 176 156 138 153 163 184 213 201 211 26 6 192 256 259 268
285 193 199 189 145 71 125 177 188 205 197 204 198 182 173 163 168 175 177 175 172 177 173 178 173 169 175 178 159 197 31 26 19 62 141 166 150 158 144 154 166 141 122 83 81 96 120 245 310
271 216 215 167 156 160 176 208 240 196 195 205 187 183 185 173 170 176 181 180 184 186 175 172 174 175 185 179 175 176 179 188 208 148 161 168 166 182 178 164 150 131 120 121 206 145 138 120 325
240 216 200 167 175 105 192 100 214 136 210 216 198 196 186 179 176 179 183 180 185 178 181 178 178 182 186 177 180 152 153 170 163 136 148 177 226 241 204 139 141 140 125 164 201 347 104 157 144
246 253 49 52 96 120 207 155 252 186 208 210 220 198 190 183 181 181 183 178 181 183 181 180 178 186 166 161 158 155 166 171 136 154 175 213 91 61 130 136 156 140 131 170 246 240 195 187 166
156 68 326 341 110 205 195 188 233 208 215 203 198 193 192 185 179 177 182 175 176 180 182 180 180 181 170 169 168 174 171 168 173 185 177 147 110 158 169 148 170 166 222 270 240 210 210 193 159
199 154 156 193 253 259 136 212 246 200 206 201 195 191 191 182 184 183 183 181 178 180 184 182 178 177 176 178 179 176 169 184 172 178 164 162 180 176 176 186 187 204 255 296 295 244 252 189 192
245 147 188 135 82 68 255 301 330 191 194 187 177 173 188 187 185 186 187 185 185 185 185 184 180 178 180 178 164 173 170 163 160 166 165 176 181 177 179 186 188 206 227 254 293 255 228 180 186
188 179 91 360 162 202 282 259 231 191 182 192 191 184 186 189 188 187 189 191 193 191 187 185 184 182 180 174 170 179 173 163 172 168 180 176 200 208 195 200 205 215 223 243 249 237 236 205 218
85 128 64 119 138 160 224 268 217 200 187 187 199 208 170 181 190 190 194 194 195 192 188 187 186 182 183 171 172 180 180 179 166 179 187 192 203 220 208 221 225 231 237 253 263 265 250 240 243
168 173 146 137 233 153 162 264 261 182 184 180 199 200 185 183 185 192 193 189 190 193 187 189 186 188 185 170 180 188 174 176 175 185 190 193 205 205 205 213 222 231 235 231 228 244 254 240 245